Weather History for Tyler, TX

Change the Weather History Date:

Thursday, April 25, 2013

  Actual Average Record
Temperature  
Mean Temperature 62 °F 67 °F  
Max Temperature 74 °F 77 °F 92 °F (1925)
Min Temperature 50 °F 57 °F 32 °F (1910)
Degree Days  
Heating Degree Days 3 1  
Month to date heating degree days 132 92  
Since 1 July heating degree days 1970 2257  
Cooling Degree Days 0 4  
Month to date cooling degree days 67 57  
Year to date cooling degree days 90 90  
Growing Degree Days 12 (Base 50)    
Moisture  
Dew Point 42 °F    
Average Humidity 55    
Maximum Humidity 83    
Minimum Humidity 27    
Precipitation  
Precipitation T in 0.13 in 3.61 in (1923)
Month to date precipitation 2.21 2.54  
Year to date precipitation 10.56 13.53  
Snow  
Snow 0.00 in - - ()
Month to date snowfall 0.0  
Since 1 July snowfall 1.0  
Snow Depth 0.00 in    
Sea Level Pressure  
Sea Level Pressure 30.28 in    
Wind  
Wind Speed 7 mph (East)    
Max Wind Speed 15 mph    
Max Gust Speed 21 mph    
Visibility 10 miles    
Events      
T = Trace of Precipitation, MM = Missing Value Source: NWS Daily Summary

Daily Weather History Graph

Daily Weather History Graph

Search for Another Location

Airport:

Trip Planner

Search our weather history database for the weather conditions in past years. The results will help you decide how hot, cold, wet, or windy it might be!

Date:

Astronomy

Apr. 25, 2013 Rise Set
Actual Time 6:40 AM CDT 7:58 PM CDT
Civil Twilight 6:15 AM CDT 8:24 PM CDT
Nautical Twilight 5:44 AM CDT 8:55 PM CDT
Astronomical Twilight 5:12 AM CDT 9:27 PM CDT
Moon 8:10 PM CDT (4/25) 6:24 AM CDT (4/25)
Length of Visible Light 14h 09m
Length of Day
13h 17m
Full, 100% of the Moon is Illuminated
Apr 25
Full
Apr 25
Full
May 2
Last Quarter
May 9
New
May 17
First Quarter

Hourly Weather History & Observations

Time (CDT) Temp. Dew Point Humidity Pressure Visibility Wind Dir Wind Speed Gust Speed Precip Events Conditions
12:53 AM 53.1 °F 44.1 °F 71% 30.28 in 10.0 mi NNE 3.5 mph - N/A   Overcast
1:53 AM 53.1 °F 45.0 °F 74% 30.29 in 10.0 mi Calm Calm - N/A   Mostly Cloudy
2:53 AM 52.0 °F 46.0 °F 80% 30.28 in 10.0 mi North 4.6 mph - 0.00 in   Overcast
3:53 AM 52.0 °F 45.0 °F 77% 30.29 in 10.0 mi Calm Calm - N/A   Overcast
4:53 AM 51.1 °F 44.1 °F 77% 30.28 in 10.0 mi NE 6.9 mph - N/A   Mostly Cloudy
5:53 AM 50.0 °F 44.1 °F 80% 30.31 in 10.0 mi Calm Calm - N/A   Mostly Cloudy
6:53 AM 51.1 °F 43.0 °F 74% 30.33 in 10.0 mi ENE 4.6 mph - N/A   Overcast
7:53 AM 52.0 °F 44.1 °F 74% 30.33 in 10.0 mi ENE 4.6 mph - N/A   Partly Cloudy
8:53 AM 55.9 °F 43.0 °F 62% 30.34 in 10.0 mi East 8.1 mph - N/A   Partly Cloudy
9:53 AM 60.1 °F 42.1 °F 51% 30.34 in 10.0 mi East 12.7 mph - N/A   Scattered Clouds
10:53 AM 63.0 °F 41.0 °F 45% 30.35 in 10.0 mi East 10.4 mph - N/A   Clear
11:53 AM 64.9 °F 41.0 °F 42% 30.35 in 10.0 mi SE 9.2 mph - N/A   Clear
12:53 PM 68.0 °F 39.9 °F 36% 30.32 in 10.0 mi East 6.9 mph - 0.11 in   Clear
1:53 PM 70.0 °F 39.0 °F 32% 30.29 in 10.0 mi East 5.8 mph - N/A   Clear
2:53 PM 71.1 °F 37.0 °F 29% 30.27 in 10.0 mi East 9.2 mph - N/A   Clear
3:53 PM 73.9 °F 39.0 °F 28% 30.24 in 10.0 mi ESE 9.2 mph - N/A   Clear
4:53 PM 73.0 °F 39.9 °F 30% 30.23 in 10.0 mi South 4.6 mph - N/A   Clear
5:53 PM 73.9 °F 37.9 °F 27% 30.22 in 10.0 mi ESE 6.9 mph - N/A   Clear
6:53 PM 71.1 °F 39.0 °F 31% 30.21 in 10.0 mi SE 12.7 mph - N/A   Clear
7:53 PM 66.9 °F 41.0 °F 39% 30.20 in 10.0 mi ESE 8.1 mph - N/A   Clear
8:53 PM 66.0 °F 43.0 °F 43% 30.22 in 10.0 mi SE 10.4 mph - N/A   Mostly Cloudy
9:53 PM 64.9 °F 43.0 °F 45% 30.24 in 10.0 mi SE 5.8 mph - N/A   Overcast
10:53 PM 64.0 °F 42.1 °F 45% 30.23 in 10.0 mi ESE 9.2 mph - N/A   Scattered Clouds
11:53 PM 62.1 °F 41.0 °F 46% 30.22 in 10.0 mi SE 10.4 mph - N/A   Clear